owner,sensor,date,latitude,longitude,air_pressure(mBar),qcFlag 
COMPS,ioos:station:USF.COMPS:C12:1,2017-06-01T00:05:00Z,27.4980,-83.7220,1015.44,1111122 
COMPS,ioos:station:USF.COMPS:C12:1,2017-06-01T00:35:00Z,27.4980,-83.7220,1015.7,1111122 
COMPS,ioos:station:USF.COMPS:C12:1,2017-06-01T01:05:00Z,27.4980,-83.7220,1015.72,1111122 
COMPS,ioos:station:USF.COMPS:C12:1,2017-06-01T01:35:00Z,27.4980,-83.7220,1016.16,1111122 
COMPS,ioos:station:USF.COMPS:C12:1,2017-06-01T02:05:00Z,27.4980,-83.7220,1016.37,1111122 
COMPS,ioos:station:USF.COMPS:C12:1,2017-06-01T02:35:00Z,27.4980,-83.7220,1016.56,1111122 
COMPS,ioos:station:USF.COMPS:C12:1,2017-06-01T03:05:00Z,27.4980,-83.7220,1016.81,1111122 
COMPS,ioos:station:USF.COMPS:C12:1,2017-06-01T03:35:00Z,27.4980,-83.7220,1016.81,1111122 
COMPS,ioos:station:USF.COMPS:C12:1,2017-06-01T04:05:00Z,27.4980,-83.7220,1016.54,1111122 
COMPS,ioos:station:USF.COMPS:C12:1,2017-06-01T04:35:00Z,27.4980,-83.7220,1016.68,1111122 
COMPS,ioos:station:USF.COMPS:C12:1,2017-06-01T05:05:00Z,27.4980,-83.7220,1016.49,1111122 
COMPS,ioos:station:USF.COMPS:C12:1,2017-06-01T05:35:00Z,27.4980,-83.7220,1016.38,1111122 
COMPS,ioos:station:USF.COMPS:C12:1,2017-06-01T06:05:00Z,27.4980,-83.7220,1016.25,1111122 
COMPS,ioos:station:USF.COMPS:C12:1,2017-06-01T06:35:00Z,27.4980,-83.7220,1015.97,1111122 
COMPS,ioos:station:USF.COMPS:C12:1,2017-06-01T07:05:00Z,27.4980,-83.7220,1015.74,1111122 
COMPS,ioos:station:USF.COMPS:C12:1,2017-06-01T07:35:00Z,27.4980,-83.7220,1015.57,1111122 
COMPS,ioos:station:USF.COMPS:C12:1,2017-06-01T08:05:00Z,27.4980,-83.7220,1015.52,1111122 
COMPS,ioos:station:USF.COMPS:C12:1,2017-06-01T08:35:00Z,27.4980,-83.7220,1015.37,1111122 
COMPS,ioos:station:USF.COMPS:C12:1,2017-06-01T09:05:00Z,27.4980,-83.7220,1015.32,1111122 
COMPS,ioos:station:USF.COMPS:C12:1,2017-06-01T09:35:00Z,27.4980,-83.7220,1015.55,1111122 
COMPS,ioos:station:USF.COMPS:C12:1,2017-06-01T10:05:00Z,27.4980,-83.7220,1015.6,1111122 
COMPS,ioos:station:USF.COMPS:C12:1,2017-06-01T10:35:00Z,27.4980,-83.7220,1015.79,1111122 
COMPS,ioos:station:USF.COMPS:C12:1,2017-06-01T11:05:00Z,27.4980,-83.7220,1015.84,1111122 
COMPS,ioos:station:USF.COMPS:C12:1,2017-06-01T11:35:00Z,27.4980,-83.7220,1015.88,1111122 
COMPS,ioos:station:USF.COMPS:C12:1,2017-06-01T12:05:00Z,27.4980,-83.7220,1015.81,1111122 
COMPS,ioos:station:USF.COMPS:C12:1,2017-06-01T12:35:00Z,27.4980,-83.7220,1015.85,1111122 
COMPS,ioos:station:USF.COMPS:C12:1,2017-06-01T13:05:00Z,27.4980,-83.7220,1016.15,1111122 
COMPS,ioos:station:USF.COMPS:C12:1,2017-06-01T13:35:00Z,27.4980,-83.7220,1016.4,1111122 
COMPS,ioos:station:USF.COMPS:C12:1,2017-06-01T14:05:00Z,27.4980,-83.7220,1016.4,1111122 
COMPS,ioos:station:USF.COMPS:C12:1,2017-06-01T14:35:00Z,27.4980,-83.7220,1016.66,1111122 
COMPS,ioos:station:USF.COMPS:C12:1,2017-06-01T15:05:00Z,27.4980,-83.7220,1016.54,1111122 
COMPS,ioos:station:USF.COMPS:C12:1,2017-06-01T15:35:00Z,27.4980,-83.7220,1016.68,1111122 
COMPS,ioos:station:USF.COMPS:C12:1,2017-06-01T16:05:00Z,27.4980,-83.7220,1016.68,1111122 
COMPS,ioos:station:USF.COMPS:C12:1,2017-06-01T16:35:00Z,27.4980,-83.7220,1016.42,1111122 
COMPS,ioos:station:USF.COMPS:C12:1,2017-06-01T17:05:00Z,27.4980,-83.7220,1016.26,1111122 
COMPS,ioos:station:USF.COMPS:C12:1,2017-06-01T17:35:00Z,27.4980,-83.7220,1015.88,1111122 
COMPS,ioos:station:USF.COMPS:C12:1,2017-06-01T18:05:00Z,27.4980,-83.7220,1015.76,1111122 
COMPS,ioos:station:USF.COMPS:C12:1,2017-06-01T18:35:00Z,27.4980,-83.7220,1015.43,1111122 
COMPS,ioos:station:USF.COMPS:C12:1,2017-06-01T19:05:00Z,27.4980,-83.7220,1015.22,1111122 
COMPS,ioos:station:USF.COMPS:C12:1,2017-06-01T19:35:00Z,27.4980,-83.7220,1014.87,1111122 
COMPS,ioos:station:USF.COMPS:C12:1,2017-06-01T20:05:00Z,27.4980,-83.7220,1014.46,1111122 
COMPS,ioos:station:USF.COMPS:C12:1,2017-06-01T20:35:00Z,27.4980,-83.7220,1014.07,1111122 
COMPS,ioos:station:USF.COMPS:C12:1,2017-06-01T21:05:00Z,27.4980,-83.7220,1013.69,1111122 
COMPS,ioos:station:USF.COMPS:C12:1,2017-06-01T21:35:00Z,27.4980,-83.7220,1013.65,1111122 
COMPS,ioos:station:USF.COMPS:C12:1,2017-06-01T22:05:00Z,27.4980,-83.7220,1013.53,1111122 
COMPS,ioos:station:USF.COMPS:C12:1,2017-06-01T22:35:00Z,27.4980,-83.7220,1013.59,1111122 
COMPS,ioos:station:USF.COMPS:C12:1,2017-06-01T23:05:00Z,27.4980,-83.7220,1013.77,1111122 
COMPS,ioos:station:USF.COMPS:C12:1,2017-06-01T23:35:00Z,27.4980,-83.7220,1013.97,1111122 
COMPS,ioos:station:USF.COMPS:C12:1,2017-06-02T00:05:00Z,27.4980,-83.7220,1014.1,1111122 
COMPS,ioos:station:USF.COMPS:C12:1,2017-06-02T00:35:00Z,27.4980,-83.7220,1014.47,1111122 
COMPS,ioos:station:USF.COMPS:C12:1,2017-06-02T01:05:00Z,27.4980,-83.7220,1014.99,1111122 
COMPS,ioos:station:USF.COMPS:C12:1,2017-06-02T01:35:00Z,27.4980,-83.7220,1015.49,1111122 
COMPS,ioos:station:USF.COMPS:C12:1,2017-06-02T02:05:00Z,27.4980,-83.7220,1015.68,1111122 
COMPS,ioos:station:USF.COMPS:C12:1,2017-06-02T02:35:00Z,27.4980,-83.7220,1015.36,1111122 
COMPS,ioos:station:USF.COMPS:C12:1,2017-06-02T03:05:00Z,27.4980,-83.7220,1015.61,1111122 
COMPS,ioos:station:USF.COMPS:C12:1,2017-06-02T03:35:00Z,27.4980,-83.7220,1015.57,1111122 
COMPS,ioos:station:USF.COMPS:C12:1,2017-06-02T04:05:00Z,27.4980,-83.7220,1015.36,1111122 
COMPS,ioos:station:USF.COMPS:C12:1,2017-06-02T04:35:00Z,27.4980,-83.7220,1015.13,1111122 
COMPS,ioos:station:USF.COMPS:C12:1,2017-06-02T05:05:00Z,27.4980,-83.7220,1014.64,1111122 
COMPS,ioos:station:USF.COMPS:C12:1,2017-06-02T05:35:00Z,27.4980,-83.7220,1014.6,1111122 
COMPS,ioos:station:USF.COMPS:C12:1,2017-06-02T06:05:00Z,27.4980,-83.7220,1014.72,1111122 
COMPS,ioos:station:USF.COMPS:C12:1,2017-06-02T06:35:00Z,27.4980,-83.7220,1014.7,1111122 
COMPS,ioos:station:USF.COMPS:C12:1,2017-06-02T07:05:00Z,27.4980,-83.7220,1014.22,1111122 
COMPS,ioos:station:USF.COMPS:C12:1,2017-06-02T07:35:00Z,27.4980,-83.7220,1013.7,1111122 
COMPS,ioos:station:USF.COMPS:C12:1,2017-06-02T08:05:00Z,27.4980,-83.7220,1013.95,1111122 
COMPS,ioos:station:USF.COMPS:C12:1,2017-06-02T08:35:00Z,27.4980,-83.7220,1013.84,1111122 
COMPS,ioos:station:USF.COMPS:C12:1,2017-06-02T09:05:00Z,27.4980,-83.7220,1013.83,1111122 
COMPS,ioos:station:USF.COMPS:C12:1,2017-06-02T09:35:00Z,27.4980,-83.7220,1013.95,1111122 
COMPS,ioos:station:USF.COMPS:C12:1,2017-06-02T10:05:00Z,27.4980,-83.7220,1014.17,1111122 
COMPS,ioos:station:USF.COMPS:C12:1,2017-06-02T10:35:00Z,27.4980,-83.7220,1014.41,1111122 
COMPS,ioos:station:USF.COMPS:C12:1,2017-06-02T11:05:00Z,27.4980,-83.7220,1014.68,1111122 
COMPS,ioos:station:USF.COMPS:C12:1,2017-06-02T11:35:00Z,27.4980,-83.7220,1015.03,1111122 
COMPS,ioos:station:USF.COMPS:C12:1,2017-06-02T12:05:00Z,27.4980,-83.7220,1015.43,1111122 
COMPS,ioos:station:USF.COMPS:C12:1,2017-06-02T12:35:00Z,27.4980,-83.7220,1015.73,1111122 
COMPS,ioos:station:USF.COMPS:C12:1,2017-06-02T13:05:00Z,27.4980,-83.7220,1015.89,1111122 
COMPS,ioos:station:USF.COMPS:C12:1,2017-06-02T13:35:00Z,27.4980,-83.7220,1016.06,1111122 
COMPS,ioos:station:USF.COMPS:C12:1,2017-06-02T14:05:00Z,27.4980,-83.7220,1015.92,1111122 
COMPS,ioos:station:USF.COMPS:C12:1,2017-06-02T14:35:00Z,27.4980,-83.7220,1015.7,1111122 
COMPS,ioos:station:USF.COMPS:C12:1,2017-06-02T15:05:00Z,27.4980,-83.7220,1015.84,1111122 
COMPS,ioos:station:USF.COMPS:C12:1,2017-06-02T15:35:00Z,27.4980,-83.7220,1016.0,1111122 
COMPS,ioos:station:USF.COMPS:C12:1,2017-06-02T16:05:00Z,27.4980,-83.7220,1015.98,1111122 
COMPS,ioos:station:USF.COMPS:C12:1,2017-06-02T16:35:00Z,27.4980,-83.7220,1015.8,1111122 
COMPS,ioos:station:USF.COMPS:C12:1,2017-06-02T17:05:00Z,27.4980,-83.7220,1015.49,1111122 
COMPS,ioos:station:USF.COMPS:C12:1,2017-06-02T17:35:00Z,27.4980,-83.7220,1015.21,1111122 
COMPS,ioos:station:USF.COMPS:C12:1,2017-06-02T18:05:00Z,27.4980,-83.7220,1014.76,1111122 
COMPS,ioos:station:USF.COMPS:C12:1,2017-06-02T18:35:00Z,27.4980,-83.7220,1014.52,1111122 
COMPS,ioos:station:USF.COMPS:C12:1,2017-06-02T19:05:00Z,27.4980,-83.7220,1014.08,1111122 
COMPS,ioos:station:USF.COMPS:C12:1,2017-06-02T19:35:00Z,27.4980,-83.7220,1013.93,1111122 
COMPS,ioos:station:USF.COMPS:C12:1,2017-06-02T20:05:00Z,27.4980,-83.7220,1013.63,1111122 
COMPS,ioos:station:USF.COMPS:C12:1,2017-06-02T20:35:00Z,27.4980,-83.7220,1013.37,1111122 
COMPS,ioos:station:USF.COMPS:C12:1,2017-06-02T21:05:00Z,27.4980,-83.7220,1013.24,1111122 
COMPS,ioos:station:USF.COMPS:C12:1,2017-06-02T21:35:00Z,27.4980,-83.7220,1013.29,1111122 
COMPS,ioos:station:USF.COMPS:C12:1,2017-06-02T22:05:00Z,27.4980,-83.7220,1013.22,1111122 
COMPS,ioos:station:USF.COMPS:C12:1,2017-06-02T22:35:00Z,27.4980,-83.7220,1013.22,1111122 
COMPS,ioos:station:USF.COMPS:C12:1,2017-06-02T23:05:00Z,27.4980,-83.7220,1013.06,1111122 
COMPS,ioos:station:USF.COMPS:C12:1,2017-06-02T23:35:00Z,27.4980,-83.7220,1013.28,1111122 
COMPS,ioos:station:USF.COMPS:C12:1,2017-06-03T00:05:00Z,27.4980,-83.7220,1013.62,1111122 
COMPS,ioos:station:USF.COMPS:C12:1,2017-06-03T00:35:00Z,27.4980,-83.7220,1013.6,1111122 
COMPS,ioos:station:USF.COMPS:C12:1,2017-06-03T01:05:00Z,27.4980,-83.7220,1013.94,1111122 
COMPS,ioos:station:USF.COMPS:C12:1,2017-06-03T01:35:00Z,27.4980,-83.7220,1014.1,1111122 
COMPS,ioos:station:USF.COMPS:C12:1,2017-06-03T02:05:00Z,27.4980,-83.7220,1014.13,1111122 
COMPS,ioos:station:USF.COMPS:C12:1,2017-06-03T02:35:00Z,27.4980,-83.7220,1014.37,1111122 
COMPS,ioos:station:USF.COMPS:C12:1,2017-06-03T03:05:00Z,27.4980,-83.7220,1014.64,1111122 
COMPS,ioos:station:USF.COMPS:C12:1,2017-06-03T03:35:00Z,27.4980,-83.7220,1014.71,1111122 
COMPS,ioos:station:USF.COMPS:C12:1,2017-06-03T04:05:00Z,27.4980,-83.7220,1014.64,1111122 
COMPS,ioos:station:USF.COMPS:C12:1,2017-06-03T04:35:00Z,27.4980,-83.7220,1014.43,1111122 
COMPS,ioos:station:USF.COMPS:C12:1,2017-06-03T05:05:00Z,27.4980,-83.7220,1014.1,1111122 
COMPS,ioos:station:USF.COMPS:C12:1,2017-06-03T05:35:00Z,27.4980,-83.7220,1013.92,1111122 
COMPS,ioos:station:USF.COMPS:C12:1,2017-06-03T06:05:00Z,27.4980,-83.7220,1013.62,1111122 
COMPS,ioos:station:USF.COMPS:C12:1,2017-06-03T06:35:00Z,27.4980,-83.7220,1013.29,1111122 
COMPS,ioos:station:USF.COMPS:C12:1,2017-06-03T07:05:00Z,27.4980,-83.7220,1013.19,1111122 
COMPS,ioos:station:USF.COMPS:C12:1,2017-06-03T07:35:00Z,27.4980,-83.7220,1013.02,1111122 
COMPS,ioos:station:USF.COMPS:C12:1,2017-06-03T08:05:00Z,27.4980,-83.7220,1012.76,1111122 
COMPS,ioos:station:USF.COMPS:C12:1,2017-06-03T08:35:00Z,27.4980,-83.7220,1012.76,1111122 
COMPS,ioos:station:USF.COMPS:C12:1,2017-06-03T09:05:00Z,27.4980,-83.7220,1012.82,1111122 
COMPS,ioos:station:USF.COMPS:C12:1,2017-06-03T09:35:00Z,27.4980,-83.7220,1012.83,1111122 
COMPS,ioos:station:USF.COMPS:C12:1,2017-06-03T10:05:00Z,27.4980,-83.7220,1013.15,1111122 
COMPS,ioos:station:USF.COMPS:C12:1,2017-06-03T10:35:00Z,27.4980,-83.7220,1013.29,1111122 
COMPS,ioos:station:USF.COMPS:C12:1,2017-06-03T11:05:00Z,27.4980,-83.7220,1013.59,1111122 
COMPS,ioos:station:USF.COMPS:C12:1,2017-06-03T11:35:00Z,27.4980,-83.7220,1014.03,1111122 
COMPS,ioos:station:USF.COMPS:C12:1,2017-06-03T12:05:00Z,27.4980,-83.7220,1014.1,1111122 
COMPS,ioos:station:USF.COMPS:C12:1,2017-06-03T12:35:00Z,27.4980,-83.7220,1014.34,1111122 
COMPS,ioos:station:USF.COMPS:C12:1,2017-06-03T13:05:00Z,27.4980,-83.7220,1014.41,1111122 
COMPS,ioos:station:USF.COMPS:C12:1,2017-06-03T13:35:00Z,27.4980,-83.7220,1014.54,1111122 
COMPS,ioos:station:USF.COMPS:C12:1,2017-06-03T14:05:00Z,27.4980,-83.7220,1015.02,1111122 
COMPS,ioos:station:USF.COMPS:C12:1,2017-06-03T14:35:00Z,27.4980,-83.7220,1015.1,1111122 
COMPS,ioos:station:USF.COMPS:C12:1,2017-06-03T15:05:00Z,27.4980,-83.7220,1015.24,1111122 
COMPS,ioos:station:USF.COMPS:C12:1,2017-06-03T15:35:00Z,27.4980,-83.7220,1015.43,1111122 
COMPS,ioos:station:USF.COMPS:C12:1,2017-06-03T16:05:00Z,27.4980,-83.7220,1015.53,1111122 
COMPS,ioos:station:USF.COMPS:C12:1,2017-06-03T16:35:00Z,27.4980,-83.7220,1014.64,1111122 
COMPS,ioos:station:USF.COMPS:C12:1,2017-06-03T17:05:00Z,27.4980,-83.7220,1014.47,1111122 
COMPS,ioos:station:USF.COMPS:C12:1,2017-06-03T17:35:00Z,27.4980,-83.7220,1014.11,1111122 
COMPS,ioos:station:USF.COMPS:C12:1,2017-06-03T18:05:00Z,27.4980,-83.7220,1013.67,1111122 
COMPS,ioos:station:USF.COMPS:C12:1,2017-06-03T18:35:00Z,27.4980,-83.7220,1013.58,1111122 
COMPS,ioos:station:USF.COMPS:C12:1,2017-06-03T19:05:00Z,27.4980,-83.7220,1013.29,1111122 
COMPS,ioos:station:USF.COMPS:C12:1,2017-06-03T19:35:00Z,27.4980,-83.7220,1013.26,1111122 
COMPS,ioos:station:USF.COMPS:C12:1,2017-06-03T20:05:00Z,27.4980,-83.7220,1013.13,1111122 
COMPS,ioos:station:USF.COMPS:C12:1,2017-06-03T20:35:00Z,27.4980,-83.7220,1012.75,1111122 
COMPS,ioos:station:USF.COMPS:C12:1,2017-06-03T21:05:00Z,27.4980,-83.7220,1012.76,1111122 
COMPS,ioos:station:USF.COMPS:C12:1,2017-06-03T21:35:00Z,27.4980,-83.7220,1012.63,1111122 
COMPS,ioos:station:USF.COMPS:C12:1,2017-06-03T22:05:00Z,27.4980,-83.7220,1012.65,1111122 
COMPS,ioos:station:USF.COMPS:C12:1,2017-06-03T22:35:00Z,27.4980,-83.7220,1012.67,1111122 
COMPS,ioos:station:USF.COMPS:C12:1,2017-06-03T23:05:00Z,27.4980,-83.7220,1012.77,1111122 
COMPS,ioos:station:USF.COMPS:C12:1,2017-06-03T23:35:00Z,27.4980,-83.7220,1013.0,1111122 
COMPS,ioos:station:USF.COMPS:C12:1,2017-06-04T00:05:00Z,27.4980,-83.7220,1013.02,1111122 
COMPS,ioos:station:USF.COMPS:C12:1,2017-06-04T00:35:00Z,27.4980,-83.7220,1013.27,1111122 
COMPS,ioos:station:USF.COMPS:C12:1,2017-06-04T01:05:00Z,27.4980,-83.7220,1013.43,1111122 
COMPS,ioos:station:USF.COMPS:C12:1,2017-06-04T01:35:00Z,27.4980,-83.7220,1013.61,1111122 
COMPS,ioos:station:USF.COMPS:C12:1,2017-06-04T02:05:00Z,27.4980,-83.7220,1013.83,1111122 
COMPS,ioos:station:USF.COMPS:C12:1,2017-06-04T02:35:00Z,27.4980,-83.7220,1013.83,1111122 
COMPS,ioos:station:USF.COMPS:C12:1,2017-06-04T03:05:00Z,27.4980,-83.7220,1014.11,1111122 
COMPS,ioos:station:USF.COMPS:C12:1,2017-06-04T03:35:00Z,27.4980,-83.7220,1014.35,1111122 
COMPS,ioos:station:USF.COMPS:C12:1,2017-06-04T04:05:00Z,27.4980,-83.7220,1014.34,1111122 
COMPS,ioos:station:USF.COMPS:C12:1,2017-06-04T04:35:00Z,27.4980,-83.7220,1014.1,1111122 
COMPS,ioos:station:USF.COMPS:C12:1,2017-06-04T05:05:00Z,27.4980,-83.7220,1013.73,1111122 
COMPS,ioos:station:USF.COMPS:C12:1,2017-06-04T05:35:00Z,27.4980,-83.7220,1013.59,1111122 
COMPS,ioos:station:USF.COMPS:C12:1,2017-06-04T06:05:00Z,27.4980,-83.7220,1013.29,1111122 
COMPS,ioos:station:USF.COMPS:C12:1,2017-06-04T06:35:00Z,27.4980,-83.7220,1012.76,1111122 
COMPS,ioos:station:USF.COMPS:C12:1,2017-06-04T07:05:00Z,27.4980,-83.7220,1012.49,1111122 
COMPS,ioos:station:USF.COMPS:C12:1,2017-06-04T07:35:00Z,27.4980,-83.7220,1012.34,1111122 
COMPS,ioos:station:USF.COMPS:C12:1,2017-06-04T08:05:00Z,27.4980,-83.7220,1012.06,1111122 
COMPS,ioos:station:USF.COMPS:C12:1,2017-06-04T08:35:00Z,27.4980,-83.7220,1011.95,1111122 
COMPS,ioos:station:USF.COMPS:C12:1,2017-06-04T09:05:00Z,27.4980,-83.7220,1012.1,1111122 
COMPS,ioos:station:USF.COMPS:C12:1,2017-06-04T09:35:00Z,27.4980,-83.7220,1012.09,1111122 
COMPS,ioos:station:USF.COMPS:C12:1,2017-06-04T10:05:00Z,27.4980,-83.7220,1012.1,1111122 
COMPS,ioos:station:USF.COMPS:C12:1,2017-06-04T10:35:00Z,27.4980,-83.7220,1012.51,1111122 
COMPS,ioos:station:USF.COMPS:C12:1,2017-06-04T11:05:00Z,27.4980,-83.7220,1012.73,1111122 
COMPS,ioos:station:USF.COMPS:C12:1,2017-06-04T11:35:00Z,27.4980,-83.7220,1012.76,1111122 
COMPS,ioos:station:USF.COMPS:C12:1,2017-06-04T12:05:00Z,27.4980,-83.7220,1012.75,1111122 
COMPS,ioos:station:USF.COMPS:C12:1,2017-06-04T12:35:00Z,27.4980,-83.7220,1013.02,1111122 
COMPS,ioos:station:USF.COMPS:C12:1,2017-06-04T13:05:00Z,27.4980,-83.7220,1013.16,1111122 
COMPS,ioos:station:USF.COMPS:C12:1,2017-06-04T13:35:00Z,27.4980,-83.7220,1013.31,1111122 
COMPS,ioos:station:USF.COMPS:C12:1,2017-06-04T14:05:00Z,27.4980,-83.7220,1013.29,1111122 
COMPS,ioos:station:USF.COMPS:C12:1,2017-06-04T14:35:00Z,27.4980,-83.7220,1013.32,1111122 
COMPS,ioos:station:USF.COMPS:C12:1,2017-06-04T15:05:00Z,27.4980,-83.7220,1013.27,1111122 
COMPS,ioos:station:USF.COMPS:C12:1,2017-06-04T15:35:00Z,27.4980,-83.7220,1013.37,1111122 
COMPS,ioos:station:USF.COMPS:C12:1,2017-06-04T16:05:00Z,27.4980,-83.7220,1013.57,1111122 
COMPS,ioos:station:USF.COMPS:C12:1,2017-06-04T16:35:00Z,27.4980,-83.7220,1013.56,1111122 
COMPS,ioos:station:USF.COMPS:C12:1,2017-06-04T17:05:00Z,27.4980,-83.7220,1013.38,1111122 
COMPS,ioos:station:USF.COMPS:C12:1,2017-06-04T17:35:00Z,27.4980,-83.7220,1012.84,1111122 
COMPS,ioos:station:USF.COMPS:C12:1,2017-06-04T18:05:00Z,27.4980,-83.7220,1012.76,1111122 
COMPS,ioos:station:USF.COMPS:C12:1,2017-06-04T18:35:00Z,27.4980,-83.7220,1012.46,1111122 
COMPS,ioos:station:USF.COMPS:C12:1,2017-06-04T19:05:00Z,27.4980,-83.7220,1012.11,1111122 
COMPS,ioos:station:USF.COMPS:C12:1,2017-06-04T19:35:00Z,27.4980,-83.7220,1011.78,1111122 
COMPS,ioos:station:USF.COMPS:C12:1,2017-06-04T20:05:00Z,27.4980,-83.7220,1011.41,1111122 
COMPS,ioos:station:USF.COMPS:C12:1,2017-06-04T20:35:00Z,27.4980,-83.7220,1011.13,1111122 
COMPS,ioos:station:USF.COMPS:C12:1,2017-06-04T21:05:00Z,27.4980,-83.7220,1010.93,1111122 
COMPS,ioos:station:USF.COMPS:C12:1,2017-06-04T21:35:00Z,27.4980,-83.7220,1010.84,1111122 
COMPS,ioos:station:USF.COMPS:C12:1,2017-06-04T22:05:00Z,27.4980,-83.7220,1010.84,1111122 
COMPS,ioos:station:USF.COMPS:C12:1,2017-06-04T22:35:00Z,27.4980,-83.7220,1010.9,1111122 
COMPS,ioos:station:USF.COMPS:C12:1,2017-06-04T23:05:00Z,27.4980,-83.7220,1011.08,1111122 
COMPS,ioos:station:USF.COMPS:C12:1,2017-06-04T23:35:00Z,27.4980,-83.7220,1010.91,1111122 
COMPS,ioos:station:USF.COMPS:C12:1,2017-06-05T00:05:00Z,27.4980,-83.7220,1011.25,1111122 
COMPS,ioos:station:USF.COMPS:C12:1,2017-06-05T00:35:00Z,27.4980,-83.7220,1011.29,1111122 
COMPS,ioos:station:USF.COMPS:C12:1,2017-06-05T01:05:00Z,27.4980,-83.7220,1011.35,1111122 
COMPS,ioos:station:USF.COMPS:C12:1,2017-06-05T01:35:00Z,27.4980,-83.7220,1011.75,1111122 
COMPS,ioos:station:USF.COMPS:C12:1,2017-06-05T02:05:00Z,27.4980,-83.7220,1011.82,1111122 
COMPS,ioos:station:USF.COMPS:C12:1,2017-06-05T02:35:00Z,27.4980,-83.7220,1011.78,1111122 
COMPS,ioos:station:USF.COMPS:C12:1,2017-06-05T03:05:00Z,27.4980,-83.7220,1011.68,1111122 
COMPS,ioos:station:USF.COMPS:C12:1,2017-06-05T03:35:00Z,27.4980,-83.7220,1011.41,1111122 
COMPS,ioos:station:USF.COMPS:C12:1,2017-06-05T04:05:00Z,27.4980,-83.7220,1011.57,1111122 
COMPS,ioos:station:USF.COMPS:C12:1,2017-06-05T04:35:00Z,27.4980,-83.7220,1011.53,1111122 
COMPS,ioos:station:USF.COMPS:C12:1,2017-06-05T05:05:00Z,27.4980,-83.7220,1011.41,1111122 
COMPS,ioos:station:USF.COMPS:C12:1,2017-06-05T05:35:00Z,27.4980,-83.7220,1011.31,1111122 
COMPS,ioos:station:USF.COMPS:C12:1,2017-06-05T06:05:00Z,27.4980,-83.7220,1011.24,1111122 
COMPS,ioos:station:USF.COMPS:C12:1,2017-06-05T06:35:00Z,27.4980,-83.7220,1010.94,1111122 
COMPS,ioos:station:USF.COMPS:C12:1,2017-06-05T07:05:00Z,27.4980,-83.7220,1010.63,1111122 
COMPS,ioos:station:USF.COMPS:C12:1,2017-06-05T07:35:00Z,27.4980,-83.7220,1010.42,1111122 
COMPS,ioos:station:USF.COMPS:C12:1,2017-06-05T08:05:00Z,27.4980,-83.7220,1010.24,1111122 
COMPS,ioos:station:USF.COMPS:C12:1,2017-06-05T08:35:00Z,27.4980,-83.7220,1010.25,1111122 
COMPS,ioos:station:USF.COMPS:C12:1,2017-06-05T09:05:00Z,27.4980,-83.7220,1010.48,1111122 
COMPS,ioos:station:USF.COMPS:C12:1,2017-06-05T09:35:00Z,27.4980,-83.7220,1010.44,1111122 
COMPS,ioos:station:USF.COMPS:C12:1,2017-06-05T10:05:00Z,27.4980,-83.7220,1010.64,1111122 
COMPS,ioos:station:USF.COMPS:C12:1,2017-06-05T10:35:00Z,27.4980,-83.7220,1010.67,1111122 
COMPS,ioos:station:USF.COMPS:C12:1,2017-06-05T11:05:00Z,27.4980,-83.7220,1010.82,1111122 
COMPS,ioos:station:USF.COMPS:C12:1,2017-06-05T11:35:00Z,27.4980,-83.7220,1011.03,1111122 
COMPS,ioos:station:USF.COMPS:C12:1,2017-06-05T12:05:00Z,27.4980,-83.7220,1010.99,1111122 
COMPS,ioos:station:USF.COMPS:C12:1,2017-06-05T12:35:00Z,27.4980,-83.7220,1011.18,1111122 
COMPS,ioos:station:USF.COMPS:C12:1,2017-06-05T13:05:00Z,27.4980,-83.7220,1011.71,1111122 
COMPS,ioos:station:USF.COMPS:C12:1,2017-06-05T13:35:00Z,27.4980,-83.7220,1011.91,1111122 
COMPS,ioos:station:USF.COMPS:C12:1,2017-06-05T14:05:00Z,27.4980,-83.7220,1011.86,1111122 
COMPS,ioos:station:USF.COMPS:C12:1,2017-06-05T14:35:00Z,27.4980,-83.7220,1011.62,1111122 
COMPS,ioos:station:USF.COMPS:C12:1,2017-06-05T15:05:00Z,27.4980,-83.7220,1011.69,1111122 
COMPS,ioos:station:USF.COMPS:C12:1,2017-06-05T15:35:00Z,27.4980,-83.7220,1011.83,1111122 
COMPS,ioos:station:USF.COMPS:C12:1,2017-06-05T16:05:00Z,27.4980,-83.7220,1011.41,1111122 
COMPS,ioos:station:USF.COMPS:C12:1,2017-06-05T16:35:00Z,27.4980,-83.7220,1011.28,1111122 
COMPS,ioos:station:USF.COMPS:C12:1,2017-06-05T17:05:00Z,27.4980,-83.7220,1011.07,1111122 
COMPS,ioos:station:USF.COMPS:C12:1,2017-06-05T17:35:00Z,27.4980,-83.7220,1010.94,1111122 
COMPS,ioos:station:USF.COMPS:C12:1,2017-06-05T18:05:00Z,27.4980,-83.7220,1010.71,1111122 
COMPS,ioos:station:USF.COMPS:C12:1,2017-06-05T18:35:00Z,27.4980,-83.7220,1010.42,1111122 
COMPS,ioos:station:USF.COMPS:C12:1,2017-06-05T19:05:00Z,27.4980,-83.7220,1010.31,1111122 
COMPS,ioos:station:USF.COMPS:C12:1,2017-06-05T19:35:00Z,27.4980,-83.7220,1009.98,1111122 
COMPS,ioos:station:USF.COMPS:C12:1,2017-06-05T20:05:00Z,27.4980,-83.7220,1009.63,1111122 
COMPS,ioos:station:USF.COMPS:C12:1,2017-06-05T20:35:00Z,27.4980,-83.7220,1009.4,1111122 
COMPS,ioos:station:USF.COMPS:C12:1,2017-06-05T21:05:00Z,27.4980,-83.7220,1009.03,1111122 
COMPS,ioos:station:USF.COMPS:C12:1,2017-06-05T21:35:00Z,27.4980,-83.7220,1008.68,1111122 
COMPS,ioos:station:USF.COMPS:C12:1,2017-06-05T22:05:00Z,27.4980,-83.7220,1008.65,1111122 
COMPS,ioos:station:USF.COMPS:C12:1,2017-06-05T22:35:00Z,27.4980,-83.7220,1008.67,1111122 
COMPS,ioos:station:USF.COMPS:C12:1,2017-06-05T23:05:00Z,27.4980,-83.7220,1008.65,1111122 
COMPS,ioos:station:USF.COMPS:C12:1,2017-06-05T23:35:00Z,27.4980,-83.7220,1008.81,1111122 
COMPS,ioos:station:USF.COMPS:C12:1,2017-06-06T00:05:00Z,27.4980,-83.7220,1008.54,1111122 
COMPS,ioos:station:USF.COMPS:C12:1,2017-06-06T00:35:00Z,27.4980,-83.7220,1008.29,1111122 
COMPS,ioos:station:USF.COMPS:C12:1,2017-06-06T01:05:00Z,27.4980,-83.7220,1008.48,1111122 
COMPS,ioos:station:USF.COMPS:C12:1,2017-06-06T01:35:00Z,27.4980,-83.7220,1008.62,1111122 
COMPS,ioos:station:USF.COMPS:C12:1,2017-06-06T02:05:00Z,27.4980,-83.7220,1008.72,1111122 
COMPS,ioos:station:USF.COMPS:C12:1,2017-06-06T02:35:00Z,27.4980,-83.7220,1008.74,1111122 
COMPS,ioos:station:USF.COMPS:C12:1,2017-06-06T03:05:00Z,27.4980,-83.7220,1008.65,1111122 
COMPS,ioos:station:USF.COMPS:C12:1,2017-06-06T03:35:00Z,27.4980,-83.7220,1008.79,1111122 
COMPS,ioos:station:USF.COMPS:C12:1,2017-06-06T04:05:00Z,27.4980,-83.7220,1008.89,1111122 
COMPS,ioos:station:USF.COMPS:C12:1,2017-06-06T04:35:00Z,27.4980,-83.7220,1008.49,1111122 
COMPS,ioos:station:USF.COMPS:C12:1,2017-06-06T05:05:00Z,27.4980,-83.7220,1008.53,1111122 
COMPS,ioos:station:USF.COMPS:C12:1,2017-06-06T05:35:00Z,27.4980,-83.7220,1008.22,1111122 
COMPS,ioos:station:USF.COMPS:C12:1,2017-06-06T06:05:00Z,27.4980,-83.7220,1008.2,1111122 
COMPS,ioos:station:USF.COMPS:C12:1,2017-06-06T06:35:00Z,27.4980,-83.7220,1007.98,1111122 
COMPS,ioos:station:USF.COMPS:C12:1,2017-06-06T07:05:00Z,27.4980,-83.7220,1007.61,1111122 
COMPS,ioos:station:USF.COMPS:C12:1,2017-06-06T07:35:00Z,27.4980,-83.7220,1006.84,1111122 
COMPS,ioos:station:USF.COMPS:C12:1,2017-06-06T08:05:00Z,27.4980,-83.7220,1006.3,1111122 
COMPS,ioos:station:USF.COMPS:C12:1,2017-06-06T08:35:00Z,27.4980,-83.7220,1006.0,1111122 
COMPS,ioos:station:USF.COMPS:C12:1,2017-06-06T09:05:00Z,27.4980,-83.7220,1006.27,1111122 
COMPS,ioos:station:USF.COMPS:C12:1,2017-06-06T09:35:00Z,27.4980,-83.7220,1005.94,1111122 
COMPS,ioos:station:USF.COMPS:C12:1,2017-06-06T10:05:00Z,27.4980,-83.7220,1006.0,1111122 
COMPS,ioos:station:USF.COMPS:C12:1,2017-06-06T10:35:00Z,27.4980,-83.7220,1006.3,1111122 
COMPS,ioos:station:USF.COMPS:C12:1,2017-06-06T11:05:00Z,27.4980,-83.7220,1006.58,1111122 
COMPS,ioos:station:USF.COMPS:C12:1,2017-06-06T11:35:00Z,27.4980,-83.7220,1006.85,1111122 
COMPS,ioos:station:USF.COMPS:C12:1,2017-06-06T12:05:00Z,27.4980,-83.7220,1006.85,1111122 
COMPS,ioos:station:USF.COMPS:C12:1,2017-06-06T12:35:00Z,27.4980,-83.7220,1006.74,1111122 